Home > Weather > Morden > Past weeks

Flag for Canada Past Weather in Morden, Manitoba, Canada — Yesterday and Last 2 Weeks

Now
60 °F

Cool.


Feels Like: 60 °F
Forecast: 56 / 67 °F
Wind: 10 mph from West

Location: Morden CDA CS

Current Time: Jun 26, 2016 at 1:40:32 AM

Latest Report: Jun 26, 2016 at 1:00 AM


Visibility: N/A

Pressure: 29.63 "Hg

Humidity: 73%

Dew Point: 51 °F

Location of MordenLocation

Past Weather in Morden — Graph

°F

Morden Temperature Yesterday

Maximum temperature yesterday: 77 °F (at 3:00 PM)
Minimum temperature yesterday: 61 °F (at 11:00 PM)
Average temperature yesterday: 69 °F

High & Low Weather Summary for the Past Weeks

 TemperatureHumidityPressure
High82 °F (Jun 19, 3:00 PM)100% (Jun 16, 4:00 AM)30.20 "Hg (Jun 16, 4:00 AM)
Low53 °F (Jun 13, 3:00 AM)30% (Jun 13, 6:00 PM)29.56 "Hg (Jun 25, 2:00 AM)
Average66 °F68%29.92 "Hg
* Reported Jun 11 12:00 AM — Jun 26 12:00 AM, Morden, Weather by CustomWeather, © 2016

Note: Actual official high and low records may vary slightly from our data, if they occured in-between our weather recording intervals... More about our weather records

Advertising

Morden Weather History for the Previous 24 Hours

Scroll right to see more
 ConditionsComfort  
Time TempWeatherWind HumidityBarometerVisibility
12:00 AM
Sun, Jun 26
61 °FCool.10 mph70%29.64 "HgN/A
11:00 PM
Sat, Jun 25
61 °FCool.10 mph63%29.65 "HgN/A
10:00 PM62 °FCool.9 mph63%29.65 "HgN/A
9:00 PM65 °FMild.16 mph49%29.64 "HgN/A
8:00 PM69 °FMild.15 mph46%29.64 "HgN/A
7:00 PM73 °FMild.13 mph42%29.64 "HgN/A
6:00 PM73 °FMild.18 mph42%29.65 "HgN/A
5:00 PM74 °FMild.22 mph35%29.63 "HgN/A
4:00 PM76 °FMild.17 mph35%29.63 "HgN/A
3:00 PM77 °FWarm.18 mph56%29.62 "HgN/A
2:00 PM75 °FMild.16 mph66%29.61 "HgN/A
1:00 PM77 °FMild.17 mph64%29.60 "HgN/A
12:00 PM75 °FMild.15 mph67%29.63 "HgN/A
11:00 AM73 °FMild.12 mph72%29.64 "HgN/A
10:00 AM71 °FMild.7 mph79%29.64 "HgN/A
9:00 AM70 °FMild.6 mph86%29.64 "HgN/A
8:00 AM66 °FMild.9 mph93%29.61 "HgN/A
7:00 AM64 °FMild.9 mph96%29.63 "HgN/A
6:00 AM63 °FMild.3 mph89%29.63 "HgN/A
5:00 AM64 °FMild.6 mph97%29.59 "HgN/A
4:00 AM63 °FMild.3 mph97%29.69 "HgN/A
3:00 AM63 °FMild.10 mph95%29.67 "HgN/A
2:00 AM72 °FMild.10 mph75%29.56 "HgN/A
Weather by CustomWeather, © 2016

See weather overviewHow to use our weather pages